Regional Weather Roundup
Issued by NWS

Home | Current Version | Previous Version | Graphics & Text | Print | Product List | Glossary On
Versions: 1 2 3 4 5 6 7 8 9 10 11 12 13 14 15 16 17 18 19 20 21 22 23 24 25 26 27 28 29 30 31 32 33 34 35 36 37 38 39 40 41 42 43 44 45 46 47 48 49 50
000
ASUS43 KLSX 281157
RWRMO

WEATHER SUMMARY FOR MISSOURI
NATIONAL WEATHER SERVICE SPRINGFIELD MO
700 AM CDT WED JUN 28 2017

NOTE: "FAIR" INDICATES FEW OR NO CLOUDS BELOW 12,000 FEET WITH NO
       SIGNIFICANT WEATHER AND/OR OBSTRUCTIONS TO VISIBILITY.
       CURRENT SKY AND/OR WEATHER CONDITIONS ARE NOT AVAILABLE FOR
       CHILLICOTHE AND FARMINGTON.

MOZ001>031-035>038-043-044-053-054-281300-
...NORTHERN AND WESTERN MISSOURI...

CITY           SKY/WX    TMP DP  RH WIND       PRES   REMARKS
KANSAS CTY INT CLOUDY    73  66  78 S18G24    29.87F
6HR MIN TEMP:  72; 6HR MAX TEMP:  74;

LEE`S SUMMIT   PTSUNNY   71  64  78 S15G25    29.90F
6HR MIN TEMP:  71; 6HR MAX TEMP:  74;

ST JOSEPH      TSTM      73  68  84 S5        29.86R
6HR MIN TEMP:  73; 6HR MAX TEMP:  75; 6HR PCP:  0.03;

CHILLICOTHE      N/A     72  64  76 S6        29.91F
6HR MIN TEMP:  72; 6HR MAX TEMP:  74;


$$
MOZ066>068-077>081-088>096-101>105-281300-
...SOUTHWEST MISSOURI...

CITY           SKY/WX    TMP DP  RH WIND       PRES   REMARKS
SPRINGFIELD    MOSUNNY   67  63  87 S10       30.01R
6HR MIN TEMP:  66; 6HR MAX TEMP:  70;

BRANSON        PTSUNNY  N/A N/A N/A CALM      30.04R

$$
MOZ032>034-039>042-045>050-055>058-069>072-281300-
...CENTRAL MISSOURI...

CITY           SKY/WX    TMP DP  RH WIND       PRES   REMARKS
COLUMBIA       NOT AVBL
JEFFERSON CITY PTSUNNY   70  62  76 SE5       29.97R
6HR MIN TEMP:  69; 6HR MAX TEMP:  72;

ROLLA          CLOUDY    67  62  84 S10       30.01R
6HR MIN TEMP:  65; 6HR MAX TEMP:  67;

SEDALIA        CLOUDY    70  65  84 S15       29.95S
6HR MIN TEMP:  70; 6HR MAX TEMP:  73;


$$
MOZ051-052-059>065-281300-
...EAST CENTRAL MISSOURI...

CITY           SKY/WX    TMP DP  RH WIND       PRES   REMARKS
ST LOUIS INTL  CLOUDY    69  58  67 S12       30.02S
6HR MIN TEMP:  69; 6HR MAX TEMP:  73;


$$
MOZ072>076-082>087-097>100-106>115-281300-
...SOUTH CENTRAL AND SOUTHEAST MISSOURI...

CITY           SKY/WX    TMP DP  RH WIND       PRES   REMARKS
CAPE GIRARDEAU CLOUDY    67  58  72 SE8       30.06R
6HR MIN TEMP:  60; 6HR MAX TEMP:  67;

POPLAR BLUFF   SUNNY     64  64 100 CALM      30.05S FOG
6HR MIN TEMP:  63; 6HR MAX TEMP:  66;

WEST PLAINS    SUNNY     67  63  87 S8        30.06S
6HR MIN TEMP:  65; 6HR MAX TEMP:  67;


$$



USA.gov is the U.S. government's official web portal to all federal, state and local government web resources and services.